Location: ????????
(55.8351°N, 38.7040°E)
Time: 09:38:58
(UTC+00:00)

Sich 1 - Pass Details

Date: 14 April 2024
Orbit: 584 x 612 km, 82.5° (Epoch: 19 May)

Event Time Altitude Azimuth Distance (km) Brightness Sun altitude
Rises 00:13:18 0° 347° (NNW) 2,827 6.9 -16.0°
Reaches altitude 10° 00:15:30 10° 346° (NNW) 1,922 6.0 -15.8°
Maximum altitude 00:19:45 82° 261° (W) 600 2.9 -15.3°
Enters shadow 00:23:43 12° 173° (S) 1,808 5.1 -14.9°
